Weather reports worldwide

Advertisment
Pau, France (7610): temperature & dewpoint: 05.12.2019 10:00:00 - 11.12.2019 10:00:00 (CET)Pau, France (7610): temperature 5cm: 05.12.2019 10:00:00 - 11.12.2019 10:00:00 (CET)Pau, France (7610): temperature -20cm & temperature -100cm: 05.12.2019 10:00:00 - 11.12.2019 10:00:00 (CET)Pau, France (7610): wind speed & gusts: 05.12.2019 10:00:00 - 11.12.2019 10:00:00 (CET)Pau, France (7610): wind direction: 05.12.2019 10:00:00 - 11.12.2019 10:00:00 (CET)Pau, France (7610): reduced air pressure: 05.12.2019 10:00:00 - 11.12.2019 10:00:00 (CET)Pau, France (7610): visibility: 05.12.2019 10:00:00 - 11.12.2019 10:00:00 (CET)Pau, France (7610): sunshine duration: 05.12.2019 10:00:00 - 11.12.2019 10:00:00 (CET)Pau, France (7610): precipitation: 05.12.2019 10:00:00 - 11.12.2019 10:00:00 (CET)
Date & Time tt [°C] td [°C] tt 5cm [°C] tt -20cm [°C] tt -100cm [°C] ff [km/h] ff [kn] fx [km/h] fx [kn] dd ppp [hPa] vv [km] sd [min] rr [mm]
11.12.2019 10:00:00 9,8 8,6 8,7 11,0 12,8 28 15 45 25 WSW 1019,6 3,4 0 -
11.12.2019 09:00:00 10,7 6,6 7,3 11,0 12,8 22 12 37 20 W 1018,9 60 0 0,0
11.12.2019 08:00:00 8,0 4,9 7,0 11,0 12,8 5 3 13 7 NW 1018,0 60 0 0,0
11.12.2019 07:00:00 8,2 5,3 6,4 11,0 12,8 5 3 14 8 ESE 1016,7 60 0 0,0
11.12.2019 06:00:00 8,6 4,0 6,9 11,0 12,8 8 4 12 6 SSE 1016,8 60 0 0,0
11.12.2019 05:00:00 8,6 3,4 6,6 11,1 12,8 5 3 11 6 ESE 1017,6 60 0 0,0
11.12.2019 04:00:00 8,5 3,5 7,3 11,1 12,8 9 5 12 7 SE 1018,6 60 0 0,0
11.12.2019 03:00:00 7,9 3,5 6,5 11,1 12,8 6 3 17 9 E 1019,7 60 0 0,0
11.12.2019 02:00:00 7,6 3,1 5,6 11,1 12,8 15 8 18 10 SE 1020,4 51 0 0,0
11.12.2019 01:00:00 6,8 3,8 4,7 11,2 12,8 6 3 11 6 SE 1021,3 40 0 0,0
11.12.2019 00:00:00 6,6 3,6 4,4 11,2 12,8 9 5 14 8 ESE 1021,4 43 0 0,0
10.12.2019 23:00:00 6,1 3,8 3,4 11,3 12,8 9 5 16 9 ESE 1022,1 30 0 0,0
10.12.2019 22:00:00 5,6 3,9 2,0 11,3 12,8 13 7 19 10 ESE 1022,4 21 0 0,0
10.12.2019 21:00:00 5,9 4,2 -0,1 11,3 12,8 9 5 12 7 SE 1023,0 24 0 0,0
10.12.2019 20:00:00 6,1 4,4 0,6 11,2 12,8 6 3 11 6 E 1023,5 20 0 0,0
10.12.2019 19:00:00 7,3 5,1 2,6 11,2 12,8 8 4 14 7 E 1023,6 33 0 0,0
10.12.2019 18:00:00 8,6 5,0 4,4 11,2 12,8 8 4 14 8 E 1024,0 32 0 0,0
10.12.2019 17:00:00 10,6 4,7 8,4 11,1 12,8 6 3 21 11 E 1024,4 50 43 0,0
10.12.2019 16:00:00 12,8 4,5 16,4 11,1 12,8 13 7 21 12 ESE 1024,8 44 60 0,0
10.12.2019 15:00:00 13,2 4,9 19,1 11,1 12,8 6 3 16 9 ENE 1025,7 20 60 0,0
10.12.2019 14:00:00 12,6 5,5 18,8 11,0 12,8 11 6 18 10 ESE 1026,4 38 60 0,0
10.12.2019 13:00:00 12,3 5,0 18,2 11,1 12,8 3 2 11 6 SSW 1027,9 33 60 0,0
10.12.2019 12:00:00 10,7 5,9 15,4 11,1 12,8 3 1 9 5 WSW 1029,0 20 60 0,0
10.12.2019 11:00:00 8,9 5,3 9,7 11,1 12,8 5 3 18 10 SE 1029,8 20 60 0,0
10.12.2019 10:00:00 6,3 5,3 3,8 11,1 12,8 5 3 11 6 SE 1030,6 20 47 0,0
10.12.2019 09:00:00 4,5 4,4 1,1 11,2 12,8 9 5 14 8 ESE 1030,9 20 16 0,0
10.12.2019 08:00:00 4,9 4,8 1,6 11,2 12,8 8 4 15 8 SE 1030,9 10 0 0,0
10.12.2019 07:00:00 5,5 5,4 1,1 11,3 12,8 8 4 14 8 SE 1030,9 3,4 0 0,0
10.12.2019 06:00:00 6,4 6,1 3,4 11,3 12,8 9 5 13 7 E 1031,3 4,3 0 0,0
10.12.2019 05:00:00 7,0 6,7 4,8 11,3 12,8 4 2 8 5 ESE 1031,8 7 0 0,0
10.12.2019 04:00:00 7,4 7,0 6,1 11,4 12,8 6 3 9 5 E 1032,1 11 0 0,0
10.12.2019 03:00:00 7,8 7,0 6,6 11,4 12,8 3 2 12 7 S 1032,1 13 0 0,0
10.12.2019 02:00:00 8,0 7,2 6,7 11,4 12,8 3 2 16 9 N 1032,4 15 0 0,0
10.12.2019 01:00:00 7,9 7,1 6,4 11,4 12,8 9 5 25 13 SSW 1032,2 15 0 0,0
10.12.2019 00:00:00 8,4 7,6 7,5 11,4 12,8 19 10 32 18 WSW 1031,9 14 0 0,2
09.12.2019 23:00:00 9,0 7,6 7,8 11,4 12,8 15 8 25 13 W 1032,2 7 0 0,4
09.12.2019 22:00:00 8,8 8,0 7,7 11,3 12,8 14 8 25 13 SW 1031,6 13 0 0,0
09.12.2019 21:00:00 8,7 7,6 7,5 11,3 12,8 17 9 28 15 WSW 1031,1 16 0 0,0
09.12.2019 20:00:00 8,8 7,9 6,9 11,3 12,8 18 10 33 18 WSW 1030,8 8 0 0,2
09.12.2019 19:00:00 8,4 7,3 7,0 11,2 12,8 17 9 36 19 SW 1030,1 15 0 0,8
09.12.2019 18:00:00 9,5 7,9 8,0 11,1 12,8 18 10 35 19 W 1029,5 9 0 0,2
09.12.2019 17:00:00 9,7 8,3 8,8 11,0 12,8 22 12 45 24 W 1028,4 19 3 1,6
09.12.2019 16:00:00 10,1 7,9 8,9 11,0 12,8 29 15 54 29 W 1027,6 20 5 0,4
09.12.2019 15:00:00 10,8 7,8 9,0 11,0 12,8 28 15 66 36 W 1026,8 19 15 1,0
09.12.2019 14:00:00 11,5 8,0 8,7 11,0 12,8 34 18 61 33 W 1026,3 16 36 0,4
09.12.2019 13:00:00 10,0 8,3 9,0 11,0 12,8 45 24 63 34 WNW 1027,1 0,9 10 3,3
09.12.2019 12:00:00 11,9 8,9 11,1 11,0 12,8 29 15 51 27 W 1026,2 12 30 0,0
09.12.2019 11:00:00 10,7 8,1 8,9 11,0 12,8 24 13 57 31 W 1026,3 13 6 0,0
09.12.2019 10:00:00 10,3 7,9 8,6 11,1 12,9 30 16 76 41 W 1025,6 15 0 -
09.12.2019 09:00:00 10,1 8,9 8,5 11,1 12,8 21 11 71 39 WSW 1024,6 9 5 0,8
09.12.2019 08:00:00 9,7 7,6 8,3 11,1 12,8 37 20 71 39 WNW 1024,5 1,6 0 -
09.12.2019 07:00:00 9,9 8,7 8,7 11,1 12,8 29 16 52 28 W 1023,9 4,0 0 -
09.12.2019 06:00:00 9,9 8,3 8,4 11,1 12,8 21 11 35 19 SW 1023,7 11 0 1,0
09.12.2019 05:00:00 9,8 8,6 8,6 11,1 12,8 30 16 61 33 WSW 1023,8 18 0 0,8
09.12.2019 04:00:00 10,7 7,9 9,5 11,1 12,8 28 15 43 23 WSW 1023,4 13 0 0,0
09.12.2019 03:00:00 10,8 7,8 9,8 11,1 12,9 22 12 45 25 WSW 1023,6 18 0 0,0
09.12.2019 02:00:00 10,7 7,6 8,8 11,1 12,8 23 13 40 22 WSW 1024,1 18 0 0,0
09.12.2019 01:00:00 10,5 7,2 8,1 11,1 12,9 24 13 39 21 WSW 1024,3 18 - -
09.12.2019 00:00:00 10,7 7,6 8,7 11,1 12,8 16 9 32 18 WSW 1024,7 16 0 0,0
08.12.2019 23:00:00 10,7 8,5 8,6 11,0 12,8 21 11 33 18 W 1025,0 14 0 0,0
08.12.2019 22:00:00 10,8 8,7 9,2 11,0 12,8 19 11 29 16 WSW 1024,6 14 0 -
08.12.2019 21:00:00 11,2 9,8 10,1 11,0 12,8 16 9 41 22 WSW 1024,5 14 0 -
08.12.2019 20:00:00 12,0 11,1 11,4 11,0 12,8 24 13 43 23 W 1024,0 18 0 0,0
08.12.2019 19:00:00 12,7 12,1 12,2 10,9 12,8 26 14 42 23 W 1022,7 11 0 0,2
08.12.2019 18:00:00 12,6 12,3 12,1 10,9 12,8 25 14 39 21 WSW 1021,4 3,9 0 -
08.12.2019 17:00:00 12,4 12,1 11,9 10,9 12,8 12 6 18 10 WSW 1020,5 2,6 0 3,0
08.12.2019 16:00:00 12,5 11,7 11,9 10,9 12,9 10 5 23 12 SW 1020,3 8 0 -
08.12.2019 15:00:00 13,6 10,8 12,2 10,9 12,9 18 10 27 14 W 1020,0 9 0 0,2
08.12.2019 14:00:00 14,8 10,8 14,4 10,8 12,8 5 3 29 16 WSW 1019,9 44 0 0,0
08.12.2019 13:00:00 15,1 9,5 14,8 10,8 12,8 21 11 29 16 W 1020,7 38 0 0,0
08.12.2019 12:00:00 15,0 7,8 16,9 10,8 12,8 4 2 16 8 S 1021,0 47 19 0,0
08.12.2019 11:00:00 13,1 7,3 13,7 10,8 12,8 10 5 16 8 SE 1021,3 43 55 0,0
08.12.2019 10:00:00 10,3 6,4 8,8 10,9 12,8 7 4 14 8 SSE 1021,6 28 58 0,0
08.12.2019 09:00:00 7,2 5,0 3,8 10,9 12,9 9 5 14 8 ESE 1021,7 35 14 0,0
08.12.2019 08:00:00 6,4 4,7 4,3 10,9 12,9 10 5 16 9 ESE 1021,9 39 0 0,0
08.12.2019 07:00:00 6,8 4,8 5,1 10,9 12,9 14 7 17 9 SE 1021,9 31 0 0,0
08.12.2019 06:00:00 7,5 5,6 6,6 10,9 12,9 9 5 11 6 ESE 1022,3 29 0 0,0
08.12.2019 05:00:00 6,6 5,4 3,5 11,0 12,9 2 1 11 6 ESE 1022,6 19 0 0,0
08.12.2019 04:00:00 6,6 5,1 3,7 11,0 12,9 8 5 12 7 ESE 1022,7 20 0 0,0
08.12.2019 03:00:00 6,6 5,2 3,8 10,9 12,8 11 6 15 8 ESE 1023,4 16 0 0,0
08.12.2019 02:00:00 6,8 5,3 4,1 11,0 12,9 10 5 14 7 SE 1023,7 12 0 0,0
08.12.2019 01:00:00 7,2 5,8 3,7 10,9 12,9 5 3 12 7 E 1024,1 12 0 0,0
08.12.2019 00:00:00 8,9 7,0 5,7 10,9 12,9 10 6 14 7 SE 1024,0 12 0 0,0
07.12.2019 23:00:00 10,7 8,1 8,9 10,9 12,9 7 4 11 6 SE 1024,0 12 0 0,0
07.12.2019 22:00:00 11,4 8,8 10,0 10,9 12,9 10 6 13 7 SE 1024,0 13 0 0,0
07.12.2019 21:00:00 11,1 9,0 10,0 10,9 12,9 5 3 9 5 E 1024,4 10 0 0,0
07.12.2019 20:00:00 11,5 9,2 10,3 10,8 12,9 2 1 8 4 SE 1024,3 22 0 0,0
07.12.2019 19:00:00 12,0 9,4 8,7 10,7 12,9 5 3 7 4 SE 1024,2 15 0 0,0
07.12.2019 18:00:00 12,9 9,2 11,0 10,7 12,9 3 2 5 3 NNW 1023,8 41 0 0,0
07.12.2019 17:00:00 14,3 9,1 13,8 10,6 12,9 2 1 9 5 N 1022,9 40 57 0,0
07.12.2019 16:00:00 15,4 8,6 14,6 10,6 12,9 4 2 12 6 WSW 1022,4 24 46 0,0
07.12.2019 15:00:00 15,2 8,9 18,5 10,5 12,9 5 3 11 6 SW 1022,5 32 52 0,0
07.12.2019 14:00:00 14,2 9,4 15,3 10,5 12,9 4 2 10 5 WNW 1023,3 12 44 0,0
07.12.2019 13:00:00 13,6 9,0 15,9 10,5 12,9 2 1 10 6 E 1023,8 24 15 0,0
07.12.2019 12:00:00 12,6 8,7 16,4 10,5 12,9 6 3 11 6 SSE 1024,4 22 39 0,0
07.12.2019 11:00:00 11,6 8,6 11,6 10,5 12,9 9 5 13 7 SE 1024,9 16 15 0,0
07.12.2019 10:00:00 10,0 8,1 7,6 10,5 12,9 7 4 9 5 SE 1024,7 14 36 0,0
07.12.2019 09:00:00 7,8 7,0 5,7 10,6 12,9 8 5 10 5 SE 1024,7 7 0 0,0
07.12.2019 08:00:00 6,9 6,3 4,6 10,6 12,9 8 5 13 7 ESE 1024,5 9 0 0,0
07.12.2019 07:00:00 7,1 6,5 4,1 10,6 12,9 8 4 13 7 SE 1023,9 11 0 0,0
07.12.2019 06:00:00 7,7 6,3 5,5 10,6 12,9 10 5 14 8 SE 1023,5 13 0 0,0
07.12.2019 05:00:00 7,4 6,2 4,6 10,6 12,9 10 5 16 9 SSE 1023,6 14 0 0,0
07.12.2019 04:00:00 6,4 5,5 3,2 10,7 12,9 5 3 9 5 ESE 1023,7 12 0 0,0
07.12.2019 03:00:00 7,1 5,9 6,1 10,7 13,0 5 3 12 6 E 1023,4 11 0 0,0
07.12.2019 02:00:00 6,8 5,7 5,8 10,7 12,9 7 4 11 6 ESE 1023,6 10 0 0,0
07.12.2019 01:00:00 6,2 5,6 2,7 10,7 13,0 11 6 15 8 SE 1024,2 8 0 0,0
07.12.2019 00:00:00 4,8 4,2 1,5 10,8 13,0 8 4 11 6 SSE 1024,8 3,0 0 0,0
06.12.2019 23:00:00 5,6 5,2 0,3 10,7 12,9 6 4 8 4 SW 1024,2 10 0 0,0
06.12.2019 22:00:00 5,7 5,1 1,5 10,7 12,9 6 3 9 5 ESE 1023,1 8 0 0,0
06.12.2019 21:00:00 5,9 4,7 1,9 10,7 13,0 4 2 9 5 ENE 1022,6 9 0 0,0
06.12.2019 20:00:00 7,2 5,8 2,6 10,7 13,0 3 2 8 4 SSE 1022,3 13 0 0,0
06.12.2019 19:00:00 9,0 6,6 3,5 10,6 13,0 4 2 11 6 ENE 1021,7 16 0 0,0
06.12.2019 18:00:00 10,4 6,9 4,2 10,6 13,0 8 4 10 6 NNW 1021,3 26 0 0,0
06.12.2019 17:00:00 14,2 7,5 11,6 10,5 13,0 5 3 7 4 NNW 1020,7 27 57 0,0
06.12.2019 16:00:00 15,8 7,5 17,4 10,4 13,0 3 1 10 6 W 1020,6 26 58 0,0
06.12.2019 15:00:00 16,1 6,2 21,3 10,4 13,0 3 2 11 6 S 1021,0 38 60 0,0
06.12.2019 14:00:00 15,3 7,3 20,7 10,4 13,0 3 2 12 7 SSE 1021,7 34 60 0,0
06.12.2019 13:00:00 13,0 7,4 16,5 10,4 13,0 7 4 14 8 SSE 1022,8 19 60 0,0
06.12.2019 12:00:00 10,0 6,7 10,1 10,4 13,0 7 4 17 9 SE 1024,0 15 54 0,0
06.12.2019 11:00:00 7,3 7,0 7,9 10,4 13,0 11 6 17 9 SE 1025,1 3,2 1 0,0
06.12.2019 10:00:00 7,2 6,9 5,7 10,5 13,0 10 5 17 9 ESE 1024,9 3,4 0 0,0
06.12.2019 09:00:00 6,6 6,5 4,5 10,5 13,0 6 4 11 6 SE 1024,8 5 0 0,0
06.12.2019 08:00:00 6,6 6,5 6,0 10,5 13,0 3 2 9 5 E 1024,7 4,8 0 0,0
06.12.2019 07:00:00 6,7 6,6 6,5 10,5 13,0 5 3 11 6 ESE 1024,7 4,7 0 0,0
06.12.2019 06:00:00 6,6 6,6 6,5 10,5 13,0 7 4 11 6 SE 1024,6 2,4 0 0,0
06.12.2019 05:00:00 6,4 6,4 6,2 10,5 13,0 6 4 9 5 SE 1024,7 0,1 0 0,0
06.12.2019 04:00:00 6,4 6,3 6,2 10,5 13,0 5 3 6 4 SE 1024,8 0,1 0 0,0
06.12.2019 03:00:00 6,0 5,9 5,0 10,5 13,0 3 1 7 4 S 1024,6 0,3 0 0,0
06.12.2019 02:00:00 5,0 4,9 0,8 10,6 13,0 2 1 8 4 N 1024,3 2,9 0 0,0
06.12.2019 01:00:00 5,5 4,9 2,4 10,6 13,0 2 1 7 4 SE 1024,7 2,8 0 0,0
06.12.2019 00:00:00 5,9 5,5 3,8 10,6 13,0 6 3 10 5 E 1025,1 3,0 0 0,0
05.12.2019 23:00:00 5,8 5,2 1,7 10,6 13,0 6 4 9 5 SE 1025,3 4,5 0 0,0
05.12.2019 22:00:00 6,0 5,6 2,3 10,6 13,0 3 2 9 5 ESE 1025,2 7 0 0,0
05.12.2019 21:00:00 6,4 5,3 3,1 10,6 13,0 4 2 6 3 SSE 1025,0 12 0 0,0
05.12.2019 20:00:00 6,8 6,1 2,2 10,6 13,1 5 3 7 4 WSW 1024,8 15 0 0,0
05.12.2019 19:00:00 7,0 5,5 0,8 10,5 13,1 2 1 9 5 N 1024,4 15 0 0,0
05.12.2019 18:00:00 8,6 6,0 1,7 10,4 13,1 6 4 9 5 NW 1023,4 19 0 0,0
05.12.2019 17:00:00 11,3 7,0 10,5 10,4 13,0 8 4 13 7 NW 1022,8 16 57 0,0
05.12.2019 16:00:00 12,9 6,9 16,9 10,3 13,1 6 3 14 8 WNW 1022,6 21 60 0,0
05.12.2019 15:00:00 13,2 7,0 18,8 10,3 13,1 5 3 13 7 W 1022,2 24 60 0,0
05.12.2019 14:00:00 12,3 6,8 19,1 10,2 13,1 6 3 13 7 WNW 1022,4 19 60 0,0
05.12.2019 13:00:00 10,9 7,4 17,3 10,2 13,1 6 3 10 5 W 1023,2 15 60 0,0
05.12.2019 12:00:00 10,0 6,5 11,8 10,3 13,1 4 2 12 7 S 1023,8 14 57 0,0
05.12.2019 11:00:00 7,4 6,3 8,9 10,3 13,1 3 2 9 5 W 1024,1 9 18 0,0
05.12.2019 10:00:00 6,2 5,9 5,7 10,3 13,1 5 3 7 4 SSE 1023,6 6 2 0,0

tt = temperature
td = dewpoint
tt 5cm = temperature 5cm
tt -20cm = temperature -20cm
tt -100cm = temperature -100cm
ff = wind speed
fx = gusts
dd = wind direction
ppp = reduced air pressure
vv = visibility
sd = sunshine duration
rr = precipitation

Next stations